Lexington Weather

Lexington, Massachusetts, USA

74°F
9/22/2021 1:32pm 
  • Lexington Conditions: Overcast
  • Temperature: 74.3°F / 23.5°CColder 1.4°F than last hour.
  • Dew Point: 68.0°FDecreased 1.1°Fsince last hour.
  • Relative Humidity: 81%Increased 1.0% since last hour.
  • Wind: Wind from SW SW 6 mph, 10-min avg: 4 mph, gust: 15 mph
  • Barometer: 30.10 in Steady
  • Visibility: 10 miles
  • Rain Today: 0.00 in
  •   

Regional Weather Roundup
for Boston / Norton, MA

        
000
ASUS41 KBOX 202104
RWRBOX

REGIONAL WEATHER ROUNDUP
NATIONAL WEATHER SERVICE BOSTON/NORTON MA
500 PM EDT MON SEP 20 2021

NOTE:  "FAIR" INDICATES FEW OR NO CLOUDS BELOW 12,000 FEET WITH NO 
SIGNIFICANT WEATHER AND/OR OBSTRUCTIONS TO VISIBILITY.

MAZALL-202200-
EASTERN MASSACHUSETTS
  
CITY           SKY/WX    TMP DP  RH WIND       PRES   REMARKS
BOSTON         MOSUNNY   69  52  54 E14       30.38S                  
BEVERLY        SUNNY     68  55  63 SE10      30.38R                  
LAWRENCE       SUNNY     71  51  49 VRB7      30.39R                  
BEDFORD        MOSUNNY   71  53  52 E13       30.36R                  
BLUE HILL      NOT AVBL                                               
NORWOOD        SUNNY     72  51  47 E10       30.36S                  
MARSHFIELD     SUNNY     68  54  60 E7        30.38S                  
PLYMOUTH       SUNNY     68  50  52 E8        30.38S                  
TAUNTON        SUNNY     71  51  49 NE7       30.36S                  
NEW BEDFORD    SUNNY     70  54  56 SE10      30.36S                  
$$

MAZALL-202200-
CAPE COD AND THE ISLANDS
  
CITY           SKY/WX    TMP DP  RH WIND       PRES   REMARKS
FALMOUTH       SUNNY     68  50  52 NE12      30.38S                  
HYANNIS        SUNNY     69  52  54 NE6       30.36S                  
CHATHAM        SUNNY     66  54  65 E8        30.39S                  
PROVINCETOWN   SUNNY     68  55  63 E9        30.40S                  
NANTUCKET      MOSUNNY   69  56  62 E9        30.38R                  
MARTHAS VNYRD  SUNNY     69  53  56 E9        30.37S                  
$$
 
MAZALL-202200-
CENTRAL AND WESTERN MASSACHUSETTS
  
CITY           SKY/WX    TMP DP  RH WIND       PRES   REMARKS
WORCESTER      MOSUNNY   70  52  52 SE8       30.37F                  
FITCHBURG      SUNNY     73  48  41 S5        30.36S                  
ORANGE         SUNNY     73  54  51 S8        30.36S                  
SPRINGFIELD    MOSUNNY   74  55  50 S3        30.33S                  
WESTFIELD      SUNNY     73  57  57 S6        30.33F                  
NORTH ADAMS    PTSUNNY   74  56  53 SE5       30.32S                  
PITTSFIELD     MOSUNNY   72  55  55 S5        30.33S                  
$$
 
RIZALL-202200-
RHODE ISLAND
  
CITY           SKY/WX    TMP DP  RH WIND       PRES   REMARKS
PROVIDENCE     MOSUNNY   72  54  53 S9        30.37R                  
NEWPORT        SUNNY     68  57  68 S12       30.37S                  
SMITHFIELD     PTSUNNY   73  56  54 VRB5      30.37S                  
WESTERLY       SUNNY     67  55  65 SE7       30.37S                  
$$
 
CTZALL-202200-
CONNECTICUT
  
CITY           SKY/WX    TMP DP  RH WIND       PRES   REMARKS
BRADLEY INTL   MOSUNNY   73  55  53 SE6       30.34S                  
HARTFORD       SUNNY     74  55  51 S10       30.34S                  
BRIDGEPORT     MOSUNNY   73  55  53 E12       30.35S                  
DANBURY        MOSUNNY   73  58  59 S8        30.35S                  
GROTON         SUNNY     69  55  60 SE8       30.36S                  
NEW HAVEN      SUNNY     75  55  49 SE9       30.36S                  
CHESTER        FAIR      72  55  56 VRB7      30.37S                  
MERIDEN        MOSUNNY   73  54  51 S8        30.35S                  
WILLIMANTIC    MOSUNNY   72  53  51 S9        30.35S                  
OXFORD         MOSUNNY   70  58  65 S10       30.37R                  
$$

MEZ002-015-021-024-NHZ003-005-008-011-012-014-VTZ005-008-202200-
NORTHERN NEW ENGLAND
  
CITY           SKY/WX    TMP DP  RH WIND       PRES   REMARKS
PORTLAND ME    MOSUNNY   65  51  60 SE9       30.39S                  
BANGOR ME      MOSUNNY   69  47  45 S9        30.37S                  
CONCORD NH     SUNNY     73  51  46 S7        30.36S                  
MANCHESTER NH  MOSUNNY   74  51  44 SW7       30.34S                  
NASHUA NH      MOSUNNY   73  54  51 VRB5      30.37S                  
PORTSMOUTH NH  MOSUNNY   67  50  54 SE13      30.39S                  
JAFFREY NH     SUNNY     72  57  59 S8        30.37S                  
KEENE NH       MOSUNNY   74  54  49 S7        30.35R                  
BURLINGTON VT  MOSUNNY   76  50  40 S10       30.29S                  
MT. WASHINGTON MOSUNNY   54  25  32 SW9         N/A                   
$$

NYZ052-076-202200-
EASTERN NEW YORK
  
CITY           SKY/WX    TMP DP  RH WIND       PRES   REMARKS
ALBANY         MOSUNNY   72  57  59 SE13      30.30F                  
NEW YORK CITY  PTSUNNY   74  55  51 S10       30.33S                  
$$
 
ANZALL-202200-
MARINE OBSERVATIONS
  
STATION/POSITION TIME  TEMP    WIND        PRES    VSBY  WAVE
                       AIR SEA DIR/SP/G                  HT/PER
                 (UTC) (F)     (DEG/KT/KT) (MB)    (MI)  (FT/S)
BOSTON BUOY      2040      66  110/ 10/ 12 1029.4R
BUZZARDS BAY     2000          130/ 10/ 11 1029.4F
NANTUCKET SOUND  2040   67 72   80/ 12/ 14 1028.5S
MASS BAY-STELLWA 2004   65     130/  8/  8 1028.8F  1 7/8  3/11
ISLE OF SHOALS   2000   64     130/ 12/ 13 1028.3F
S OF BLOCK IS    2026      71                N/A           2/ 8
$$

......................KEY.........................
  SKY/WX - SKY CONDITION/PRESENT WEATHER
  TMP    - TEMPERATURE IN FAHRENHEIT
  DWPT   - DEWPOINT IN FAHRENHEIT
  RH     - RELATIVE HUMIDITY IN PERCENT
  WIND   - DIRECTION AND SPEED IN MPH
  PRES   - MEAN SEA LEVEL PRESSURE IN INCHES OF HG
  WCI    - WIND CHILL INDEX
  VSB    - VISIBILITY IN MILES
  HX     - HEAT INDEX
  TC     - TEMPERATURE IN CELSIUS
  VRB    - VARIABLE WIND DIRECTION
  N/A    - NOT AVAILABLE
  
      

Other recent Regional Weather Roundups

Wed Sep 22, 1:04pm

Wed Sep 22, 12:05pm

Wed Sep 22, 11:04am

Wed Sep 22, 10:04am

Wed Sep 22, 9:04am

Wed Sep 22, 8:04am

Wed Sep 22, 7:04am

Wed Sep 22, 6:04am

Wed Sep 22, 5:04am

Wed Sep 22, 4:04am

Wed Sep 22, 3:04am

Wed Sep 22, 2:04am

Wed Sep 22, 1:04am

Wed Sep 22, 12:04am

Tue Sep 21, 11:04pm

Tue Sep 21, 10:04pm

Tue Sep 21, 9:04pm

Tue Sep 21, 8:04pm

Tue Sep 21, 7:04pm

Tue Sep 21, 6:04pm

Tue Sep 21, 5:04pm

Tue Sep 21, 4:04pm

Tue Sep 21, 3:04pm

Tue Sep 21, 2:04pm

Tue Sep 21, 1:04pm

Tue Sep 21, 12:04pm

Tue Sep 21, 11:04am

Tue Sep 21, 10:04am

Tue Sep 21, 9:04am

Tue Sep 21, 8:04am

Tue Sep 21, 7:04am

Tue Sep 21, 6:04am

Tue Sep 21, 5:04am

Tue Sep 21, 4:04am

Tue Sep 21, 3:04am

Tue Sep 21, 2:04am

Tue Sep 21, 1:04am

Tue Sep 21, 12:04am

Mon Sep 20, 11:04pm

Mon Sep 20, 10:04pm

Mon Sep 20, 9:04pm

Mon Sep 20, 8:04pm

Mon Sep 20, 7:04pm

Mon Sep 20, 6:04pm

Mon Sep 20, 4:04pm

Mon Sep 20, 3:04pm

Mon Sep 20, 2:04pm

Mon Sep 20, 1:04pm

Mon Sep 20, 12:04pm

Mon Sep 20, 11:04am

Mon Sep 20, 10:04am

Mon Sep 20, 9:04am

Mon Sep 20, 7:04am

Mon Sep 20, 6:04am

Mon Sep 20, 5:04am

Mon Sep 20, 4:04am

Mon Sep 20, 3:04am

Mon Sep 20, 2:04am

Mon Sep 20, 1:04am

Mon Sep 20, 12:04am

Sun Sep 19, 11:04pm

Sun Sep 19, 10:04pm

Sun Sep 19, 9:04pm

Sun Sep 19, 8:04pm

Sun Sep 19, 7:04pm

Sun Sep 19, 6:04pm

Sun Sep 19, 5:04pm

Sun Sep 19, 4:04pm

Sun Sep 19, 3:04pm

Sun Sep 19, 2:05pm

Sun Sep 19, 1:04pm

Sun Sep 19, 12:04pm

Sun Sep 19, 11:04am

Sun Sep 19, 10:05am

Sun Sep 19, 9:04am

Sun Sep 19, 8:04am

Sun Sep 19, 7:04am

Sun Sep 19, 6:04am

Sun Sep 19, 5:04am

Sun Sep 19, 4:04am

Sun Sep 19, 3:04am

Sun Sep 19, 2:04am

Sun Sep 19, 1:04am

Sun Sep 19, 12:04am

Sat Sep 18, 11:05pm

Sat Sep 18, 10:04pm

Sat Sep 18, 9:04pm

Sat Sep 18, 8:04pm

Sat Sep 18, 7:04pm

Sat Sep 18, 6:04pm

Sat Sep 18, 5:04pm

Sat Sep 18, 4:04pm

Sat Sep 18, 3:04pm

Sat Sep 18, 2:04pm

Sat Sep 18, 1:04pm

Sat Sep 18, 12:04pm

Sat Sep 18, 11:04am

Sat Sep 18, 10:04am

Sat Sep 18, 9:04am

Sat Sep 18, 8:04am

Sat Sep 18, 7:04am

Sat Sep 18, 6:04am

Sat Sep 18, 5:04am

Sat Sep 18, 4:04am

Sat Sep 18, 3:04am

Sat Sep 18, 2:04am

Sat Sep 18, 1:04am

Sat Sep 18, 12:04am

Fri Sep 17, 11:04pm

Fri Sep 17, 10:04pm

Fri Sep 17, 9:04pm

Fri Sep 17, 8:04pm

Fri Sep 17, 7:04pm

Fri Sep 17, 6:04pm

Fri Sep 17, 5:04pm

Fri Sep 17, 4:04pm

Fri Sep 17, 3:04pm

Fri Sep 17, 2:04pm

Fri Sep 17, 1:04pm

Fri Sep 17, 12:05pm

Fri Sep 17, 11:04am

Fri Sep 17, 10:04am

Fri Sep 17, 9:04am

Fri Sep 17, 8:04am

Fri Sep 17, 7:04am

Fri Sep 17, 6:04am

Fri Sep 17, 5:04am

Fri Sep 17, 4:04am

Fri Sep 17, 3:04am

Fri Sep 17, 2:04am

Fri Sep 17, 1:04am

Fri Sep 17, 12:04am

Thu Sep 16, 11:04pm

Thu Sep 16, 10:04pm

Thu Sep 16, 9:04pm

Thu Sep 16, 8:04pm

Thu Sep 16, 7:04pm

Thu Sep 16, 6:04pm

Thu Sep 16, 5:04pm

Thu Sep 16, 4:04pm

Thu Sep 16, 3:04pm

Thu Sep 16, 2:04pm

Thu Sep 16, 1:05pm

Thu Sep 16, 12:04pm

Thu Sep 16, 11:05am

Thu Sep 16, 10:05am

Thu Sep 16, 9:04am

Thu Sep 16, 8:04am

Thu Sep 16, 7:04am

Thu Sep 16, 6:04am

Thu Sep 16, 5:04am

Thu Sep 16, 4:04am

Thu Sep 16, 3:04am

Thu Sep 16, 2:04am

Thu Sep 16, 1:04am

Thu Sep 16, 12:04am

Wed Sep 15, 11:04pm

Wed Sep 15, 10:04pm

Wed Sep 15, 9:04pm

Wed Sep 15, 8:04pm

Wed Sep 15, 7:04pm

Wed Sep 15, 6:04pm

Wed Sep 15, 5:05pm

Wed Sep 15, 4:04pm

Wed Sep 15, 3:04pm

Wed Sep 15, 2:04pm

Meta data:

ID: a1bb940d-5173-4bf4-9508-a1f4b2caa90e
Link: https://api.weather.gov/products/a1bb940d-5173-4bf4-9508-a1f4b2caa90e